This is the latest recevied weather packets stored in our database for station/object 9W2UHF-10. If no packets are shown the sender has not sent any weather packets the latest 10 day(s).
| Time | Temp. | Humidity | Pressure | Rain* | Wind** | Luminosity | Snow |
|---|---|---|---|---|---|---|---|
| 1777608448 | 33.33° C | 63% | 1013 hPa | - | - | - | - |
| 1777608314 | 33.33° C | 63% | 1013 hPa | - | - | - | - |
| 1777607232 | 32.78° C | 64% | 1013.1 hPa | - | - | - | - |
| 1777607114 | 32.78° C | 64% | 1013.1 hPa | - | - | - | - |
| 1777605973 | 32.78° C | 65% | 1013.6 hPa | - | - | - | - |
| 1777605914 | 32.78° C | 65% | 1013.6 hPa | - | - | - | - |
| 1777604714 | 32.22° C | 67% | 1013.7 hPa | - | - | - | - |
| 1777603514 | 32.22° C | 67% | 1013.7 hPa | - | - | - | - |
| 1777602314 | 31.67° C | 68% | 1013.4 hPa | - | - | - | - |
| 1777586713 | 31.11° C | 67% | 1010.1 hPa | - | - | - | - |
| 1777585513 | 31.11° C | 68% | 1010 hPa | - | - | - | - |
| 1777584362 | 31.11° C | 68% | 1010 hPa | - | - | - | - |
| 1777584312 | 31.11° C | 68% | 1010 hPa | - | - | - | - |
| 1777579512 | 31.11° C | 67% | 1011.2 hPa | - | - | - | - |
| 1777577112 | 31.11° C | 67% | 1011.3 hPa | - | - | - | - |
| 1777569959 | 31.67° C | 65% | 1012.7 hPa | - | - | - | - |
| 1777567614 | 31.11° C | 65% | 1013.1 hPa | - | - | - | - |
| 1777567512 | 31.11° C | 65% | 1013.1 hPa | - | - | - | - |
| 1777566312 | 31.11° C | 65% | 1012.9 hPa | - | - | - | - |
| 1777565112 | 31.11° C | 64% | 1012.9 hPa | - | - | - | - |
| 1777563912 | 31.11° C | 64% | 1012.9 hPa | - | - | - | - |
| 1777557911 | 31.67° C | 61% | 1012.3 hPa | - | - | - | - |
| 1777556711 | 31.67° C | 62% | 1012.3 hPa | - | - | - | - |
| 1777555511 | 32.22° C | 60% | 1011.9 hPa | - | - | - | - |
| 1777554311 | 32.22° C | 60% | 1011.5 hPa | - | - | - | - |
* Rain since midnight (hover to see other rain measurements)
** Current wind speed in m/s (hover to see current wind gust speed)